Location: Bílinka
(49.3579°N, 14.3767°E)
Time: 01:40:18
(UTC+00:00)

Cosmos 1190 Rocket - Pass Details

Date: 28 January 2023
Orbit: 756 x 778 km, 74.1° (Epoch: 30 March)

Event Time Altitude Azimuth Distance (km) Brightness Sun altitude
Rises 17:53:08 0° 189° (S) 3,249 7.4 -19.7°
Reaches altitude 10° 17:55:32 10° 185° (S) 2,325 6.6 -20.1°
Maximum altitude 18:00:43 58° 108° (ESE) 908 4.0 -20.9°
Enters shadow 18:02:22 40° 51° (NE) 1,137 4.5 -21.2°
